Preview of NWS' New Version of Forecast
This preview is not operational and should not be used for support decisions.

Regional Weather Roundup (RWR)

Issued by National Weather Service (NWS)

                            
000
ASUS43 KTOP 220108
RWRKS 

WEATHER ROUNDUP FOR KANSAS
NATIONAL WEATHER SERVICE GOODLAND KS
800 PM CDT SUN APR 21 2019

NOTE:  "FAIR" INDICATES FEW OR NO CLOUDS BELOW 12,000 FEET WITH NO
SIGNIFICANT WEATHER AND/OR OBSTRUCTIONS TO VISIBILITY.

KSZ001>006-013>018-027>032-041>047-220200-
NORTHWEST KANSAS
  
CITY           SKY/WX    TMP DP  RH WIND       PRES   REMARKS
GOODLAND       LGT RAIN  53  48  83 NW25G37   29.89R                  
HAYS           TSTM      68  46  45 NW8G16    29.70R                  
HILL CITY      TSTM      61  52  72 W21G33    29.80F                  
RUSSELL        CLOUDY    77  53  43 S18G28    29.63R                  
$$

KSZ061>065-074>080-084>089-220200-
SOUTHWEST KANSAS
  
CITY           SKY/WX    TMP DP  RH WIND       PRES   REMARKS
DODGE CITY     PTCLDY    71  43  36 N20G33    29.69R                  
ELKHART        PTCLDY    81  36  20 W7        29.74R                  
GARDEN CITY    PTCLDY    66  44  45 N20       29.72R                  
GREAT BEND     CLEAR     76  58  53 S24G32    29.63F                  
LIBERAL        CLEAR     78  34  20 SW13      29.71R                  
PRATT          CLEAR     77  56  47 S20G29    29.69R                  
$$

KSZ066>073-081>083-090>101-220200-
SOUTHEAST KANSAS
  
CITY           SKY/WX    TMP DP  RH WIND       PRES   REMARKS
CHANUTE        MOCLDY    77  49  37 S14       29.81R                  
COFFEYVILLE    PTCLDY    76  48  37 S9        29.81R                  
HUTCHINSON     CLEAR     75  57  53 S20       29.69R                  
MEDICINE LODGE   N/A     75  60  59 S9G20     29.70R                  
NEWTON         CLEAR     76  55  48 S22G31    29.72R                  
PARSONS        PTCLDY    78  47  33 S14G30    29.82R                  
WICHITA INTL   PTCLDY    76  55  48 S20G30    29.72R                  
WICHITA JABRA  CLEAR     76  53  44 S17G29    29.73R                  
WICHITA MCCONL CLEAR     77  53  43 SE21G26   29.72S                  
WINFIELD       CLEAR     76  53  44 S17       29.76R                  
$$

KSZ007>012-019>026-033>040-048>060-102>105-220200-
NORTHEAST KANSAS
  
CITY           SKY/WX    TMP DP  RH WIND       PRES   REMARKS
CONCORDIA      CLOUDY    78  59  51 S25G36    29.65R                  
EMPORIA        PTCLDY    76  50  40 S24G33    29.73S                  
LAWRENCE       MOCLDY    77  48  35 S12G22    29.77R                  
MANHATTAN      MOCLDY    81  51  35 S14       29.68R                  
MARYSVILLE     MOCLDY    79  55  44 S15       29.68R                  
OLATHE IND     PTCLDY    75  49  39 S12       29.79R                  
OLATHE EXE     MOCLDY    75  46  35 S14       29.79R                  
SALINA         CLEAR     76  57  51 S21G38    29.67R                  
TOPEKA BILLARD CLOUDY    78  46  32 S17G26    29.74R                  
TOPEKA FORBES  CLOUDY    77  47  34 S20G31    29.74R                  
$$